Погода в Кумбране

Великобритания     51°39′27″N   3°01′32″W
темп.,
°C
ветер,
м/с
пор.,
м/с
влажн.,
%
обл.,
%
осадки,
мм/ч
давл.,
гПа
погр.,
м
9 мая, вс
вс901:00+11ю71598100 3.4 995932
04:00+10зюз61195100 6.3 995631
07:00+10ююз5119641 7.6 995759
10:00+10ююз51290100 0.0 995810
13:00+14ююз91370100 0.0 9941489
16:00+11ююз71280100 0.3 9941112
19:00+10ююз61183100 0.4 994811
22:00+8ю41195100 0.0 994425
10 мая, пн
пн1001:00+9ююз51192100 0.1 993815
04:00+9ююз81174100 0.1 9931054
07:00+9ю7118883 0.2 994913
10:00+9ююз8138397 0.1 9961172
13:00+12ююз10157776 0.9 9971583
16:00+12юз10148273 1.0 9991589
19:00+9юз813822 1.3 10011135
22:00+5юз23938 0.0 100461
11 мая, вт
вт1101:00+5ю239772 0.0 100554
04:00+4ююв229988 0.0 100521
07:00+6юв139573 0.0 1005186
10:00+10юв578279 0.3 1005989
13:00+12ююв7106747 1.4 10041674
16:00+11ююв8128285 1.6 10021581
19:00+10юз711893 3.3 1002822
22:00+6ююз389611 0.0 1006200
12 мая, ср
ср1201:00+8ююз6119691 0.1 1005678
04:00+8ююз51197100 0.4 1006668
07:00+8ююз4892100 0.7 1007636
10:00+9ююз5786100 0.1 1007826
13:00+11юз688096 0.6 10071266
16:00+11юз7108681 1.1 10071038
19:00+10юз59897 1.8 1007762
22:00+6юз21950 0.1 100915
13 мая, чт
чт1301:00+4зюз119319 0.1 100910
04:00+4зюз119425 0.0 100910
07:00+7зюз129453 0.0 1009145
10:00+11ююз227848 0.0 1009772
13:00+12ююз336840 0.4 10091130
16:00+14ююз335923 0.2 10081486
19:00+12юз237766 0.9 1009209
22:00+7сз228693 0.1 101011